Regional Weather Roundup
Issued by NWS

Home | Current Version | Previous Version | Graphics & Text | Print | Product List | Glossary On
Versions: 1 2 3 4 5 6 7 8 9 10 11 12 13 14 15 16 17 18 19 20 21 22 23 24 25 26 27 28 29 30 31 32 33 34 35 36 37 38 39 40 41 42 43 44 45 46 47 48 49 50
000
ASUS43 KLOT 141306
RWRIL

ILLINOIS REGIONAL WEATHER ROUNDUP
NATIONAL WEATHER SERVICE CHICAGO/ROMEOVILLE IL
800 AM CDT MON JUL 14 2014

NOTE: "FAIR" INDICATES FEW OR NO CLOUDS BELOW 12,000 FEET WITH NO
SIGNIFICANT WEATHER AND/OR OBSTRUCTIONS TO VISIBILITY.

* THESE STATIONS ARE NOT UNDER NWS QUALITY CONTROL. THEY ALSO MAY NOT
  REPORT WEATHER SUCH AS PRECIPITATION OR FOG.

ILZ001-002-007-009-015-016-024-141400-
NORTHWEST ILLINOIS

CITY           SKY/WX    TMP DP  RH WIND       PRES   REMARKS
MOLINE         MOSUNNY   72  66  81 W8        29.88R
STERLING*      MOSUNNY   66  64  94 SE3       29.88R
SAVANNA*       MOSUNNY   66  59  77 N3        29.88S
$$

ILZ003-004-008-010-011-017-018-141400-
NORTH CENTRAL ILLINOIS

CITY           SKY/WX    TMP DP  RH WIND       PRES   REMARKS
ROCKFORD       PTSUNNY   64  59  83 SE3       29.88F
FREEPORT*      MOSUNNY   61  57  87 CALM      29.90R
ROCHELLE*      MOSUNNY   65  58  78 CALM      29.88F
DE KALB*       PTSUNNY   64  58  81 CALM      29.89S
PERU*          SUNNY     70  66  88 W6        29.89R
$$

ILZ005-006-012>014-019>023-141400-
NORTHEAST ILLINOIS

CITY           SKY/WX    TMP DP  RH WIND       PRES   REMARKS
CHICAGO-OHARE  PTSUNNY   66  58  75 N5        29.87R
CHICAGO-MIDWAY PTSUNNY   72  59  63 S8        29.86S
AURORA         MOSUNNY   66  60  81 SW3       29.89R HAZE
LANSING*       CLOUDY    67  61  79 S5        29.88R
JOLIET*        PTSUNNY   68  63  84 CALM      29.89R
WAUKEGAN       CLOUDY    65  56  72 VRB3      29.86S
DUPAGE AIRPORT CLOUDY    67  58  72 N5        29.88R
KANKAKEE*      MOSUNNY   72  66  83 S3        29.89S
WHEELING       CLOUDY    67  61  81 CALM      29.89F
MORRIS*        MOSUNNY   67  66  95 CALM      29.88S
ROMEOVILLE*    CLOUDY    67  64  91 SW5       29.88R
NORTHERLY ISL    N/A     71  56  58 W2          N/A
$$

LMZ740>746-141400-
SOUTHERN LAKE MICHIGAN

STATION/POSITION SKY/WX   TEMP    WIND        PRES    VSBY  WAVE
                          AIR SEA DIR/SP/G                  HT/PER
                          (F)     (DEG/KT/KT) (MB)    (MI)  (FT/S)
SOUTHERN BUOY              65 62  240/  2/  2 1011.0S         0
WAUKEGAN HARBOR            65     220/ 11/ 15 1012.5S
HARRISON CRIB              69     210/  7/  8   N/A
BURNHAM HARBOR             71     270/  3/  4   N/A
CALUMET HARBOR             70     200/  4/  5 1012.3R
BURNS HARBOR               68     200/  2/  3 1012.2S
MICHIGAN CITY              71     110/  4/  5   N/A
$$

ILZ025>027-034>036-040-047-049-050-058-095>099-141400-
WEST-CENTRAL ILLINOIS

CITY           SKY/WX    TMP DP  RH WIND       PRES   REMARKS
QUINCY         SUNNY     74  70  87 SW7       29.92R
GALESBURG*     MOSUNNY   73  68  86 W6        29.89S
MACOMB*        SUNNY     72  71  95 W6        29.92S
JACKSONVILLE*  SUNNY     75  74  98 SW6       29.93R
PITTSFIELD*    SUNNY     75  71  86 SW6       29.93R
$$

ILZ028>032-037-038-041>044-048-051>054-059>061-141400-
CENTRAL ILLINOIS

CITY           SKY/WX    TMP DP  RH WIND       PRES   REMARKS
PONTIAC        SUNNY     73  66  78 S3        29.89R
BLOOMINGTON    SUNNY     73  68  84 S9        29.92S
DECATUR        MOSUNNY   74  69  85 SW5       29.92R
PEORIA         PTSUNNY   74  69  85 SW7       29.89R
LACON*         PTSUNNY   70  67  89 SW5       29.88R
LINCOLN*       PTSUNNY   73  70  90 CALM      29.89R
SPRINGFIELD    SUNNY     75  71  87 SW5       29.91R
TAYLORVILLE    CLOUDY    70  70 100 CALM      29.93R FOG
$$

ILZ033-039-045-046-055>057-062-063-141400-
EAST-CENTRAL ILLINOIS

CITY           SKY/WX    TMP DP  RH WIND       PRES   REMARKS
CHAMPAIGN      PTSUNNY   70  69  97 S5        29.92R
RANTOUL*       MOSUNNY   74  65  74 CALM      29.92S
MATTOON          N/A     73  68  84 SW5       29.92R
PARIS*         CLOUDY    72  72 100 CALM      29.93R
$$

ILZ079-100>102-141400-
SOUTHWEST ILLINOIS

CITY           SKY/WX    TMP DP  RH WIND       PRES   REMARKS
ALTON          PTSUNNY   73  73 100 SW3       29.94R FOG
BELLEVILLE     CLOUDY    75  75 100 NW5       29.93R
CAHOKIA*       MOSUNNY   75  72  90 W5        29.94R
SPARTA*        CLOUDY    70  70 100 SW3       29.96R FOG
$$

ILZ064>066-069>071-074>076-080>082-084>086-088>090-092>094-141400-
SOUTH-CENTRAL ILLINOIS

CITY           SKY/WX    TMP DP  RH WIND       PRES   REMARKS
CARBONDALE     CLOUDY    73  71  93 W6        29.95R
CAIRO*         CLOUDY    74  70  88 S3        29.95S
MARION         CLOUDY    73  72  94 S8        29.97R
MT. VERNON     CLOUDY    72  66  83 S7        29.95R
CENTRALIA*     CLOUDY    73  70  92 W3        29.94R FOG
SALEM*         CLOUDY    75  73  95 W3        29.94R FOG
METROPOLIS*    CLOUDY    72  69  93 S5        29.95F
$$

ILZ067-068-072-073-078-083-087-091-141400-
SOUTHEAST ILLINOIS

CITY           SKY/WX    TMP DP  RH WIND       PRES   REMARKS
FLORA*         CLOUDY    73  72  96 SW5       29.94R
HARRISBURG*    CLOUDY    72  72 100 SW5       29.97R
ROBINSON*      CLOUDY    73  71  94 S3        29.93S
CARMI*         CLOUDY    72  72  99 S3        29.95R
$$

ABBREVIATIONS USED IN REMARKS
   TC - TEMPERATURE IN CELSIUS
  WCI - WIND CHILL INDEX
   HX - HEAT INDEX
  VSB - VISIBILITY
$$



USA.gov is the U.S. government's official web portal to all federal, state and local government web resources and services.